Regional Weather Roundup
Issued by NWS Sterling, VA

Home | Current Version | Previous Version | Text Only | Print | Product List | Glossary Off
Versions: 1 2 3 4 5 6 7 8 9 10 11 12 13 14 15 16 17 18 19 20 21 22 23 24 25 26 27 28 29 30 31 32 33 34 35 36 37 38 39 40 41 42 43 44 45 46 47 48 49 50

000
ASUS41 KLWX 030810
RWRLWX

REGIONAL WEATHER ROUNDUP
NATIONAL WEATHER SERVICE BALTIMORE MD/WASHINGTON DC
400 AM EDT THU SEP 03 2015

Note: "FAIR" indicates few or no clouds below 12,000 feet
with no significant weather and/or obstructions to visibility.
 TC=TEMPERATURE CELSIUS

 * =Non NWS site. Station does not report precipitation (e.g. rain,
    snow, etc.), thunder, or fog.

DCZ001-MDZ009-015-VAZ040>042-051-053>054-030900-
WASHINGTON METRO

CITY           SKY/WX    TMP DP  RH WIND       PRES   REMARKS
WASHINGTON NAT CLEAR     76  67  73 CALM      29.91S
DULLES         CLEAR     67  66  97 CALM      29.92F
ANDREWS AFB    CLEAR     73  67  80 W5        29.90S
FT BELVOIR     CLEAR     66  66 100 CALM      29.91S FOG
QUANTICO       CLEAR     71  66  84 CALM      29.92S
COLLEGE PARK*  CLEAR     72  68  88 CALM      29.90S
LEESBURG*      CLEAR     72  70  94 NW8       29.93S
MANASSAS*      CLEAR     66  66 100 CALM      29.92S
GAITHERSBURG*  CLEAR     68  64  88 CALM      29.96S

$$

MDZ006>007-011-014-030900-
BALTIMORE METRO

CITY           SKY/WX    TMP DP  RH WIND       PRES   REMARKS
BWI AIRPORT    CLEAR     69  67  93 W3        29.89S
MD SCIENCE CTR   N/A     75  66  73 MISG      29.89S
ANNAPOLIS      CLEAR     74  69  85 W3        29.88F
FORT MEADE*    CLEAR     64  64 100 CALM      29.92S

$$

MDZ012-015-019>023-030900-
MARYLAND EASTERN SHORE

CITY           SKY/WX    TMP DP  RH WIND       PRES   REMARKS
OCEAN CITY     PTCLDY    74  71  91 W7        29.88S
SALISBURY      CLEAR     71  70  96 SW5       29.89S FOG
BAY BRIDGE AP*   N/A     75  68  78 NW3       29.89S
CAMBRIDGE*     CLEAR     72  68  88 S3        29.89R

$$

MDZ017>025-030900-
SOUTHERN MARYLAND

CITY           SKY/WX    TMP DP  RH WIND       PRES   REMARKS
PATUXENT RIVER CLEAR     71  67  87 W7        29.90S
ST INIGOES     CLEAR     73  70  90 W3        29.89F
LEONARDTOWN*   NOT AVBL

$$

MDZ003>005-030900-
NORTH CENTRAL MARYLAND

CITY           SKY/WX    TMP DP  RH WIND       PRES   REMARKS
FREDERICK*     CLEAR     68  68 100 CALM      29.94S FOG
HAGERSTOWN APT PTCLDY    70  65  84 SE5       29.94S
WESTMINSTER*   CLEAR     70  66  88 CALM      29.93S

$$

MDZ501>502-030900-
WESTERN MARYLAND

CITY           SKY/WX    TMP DP  RH WIND       PRES   REMARKS
OAKLAND*       CLEAR     61  61 100 SW3       30.08F
CUMBERLAND*    CLOUDY    68  68 100 CALM      30.01S VSB 1/4

$$

VAZ025>031-030900-
SHENANDOAH VALLEY

CITY           SKY/WX    TMP DP  RH WIND       PRES   REMARKS
WINCHESTER*    CLEAR     68  64  88 CALM      29.95S
FRONT ROYAL*   FAIR      64  64 100 S6        29.95S
LURAY*         FAIR      63  63 100 CALM      29.98S FOG
NEW MARKET*    FAIR      63  63  99 CALM      29.98S
STAUNTON*      CLEAR     64  62  94 CALM      30.02S FOG
WAYNESBORO*    FAIR      63  62  95 CALM      30.01R

$$

WVZ021-048>050-054>055-030900-
EASTERN WEST VIRGINIA PANHANDLE

CITY           SKY/WX    TMP DP  RH WIND       PRES   REMARKS
MARTINSBURG    CLEAR     64  63  96 CALM      29.95S FOG
PETERSBURG*    FOG       64  64 100 CALM      30.00S VSB 1/4

$$

VAZ036>039-050-030900-
CENTRAL FOOTHILLS

CITY           SKY/WX    TMP DP  RH WIND       PRES   REMARKS
CHARLOTTESVILL CLEAR     66  64  93 S3        29.94F
CULPEPER*      CLEAR     63  63  99 CALM      29.93S FOG
ORANGE*        CLEAR     66  64  94 S3        29.94F
GORDONSVILLE*  FAIR      64  63  97 CALM      29.93S
WARRENTON*     FAIR      65  65  99 CALM      29.92S FOG

$$

VAZ055>057-030900-
NORTH AND CENTRAL PIEDMONT

CITY           SKY/WX    TMP DP  RH WIND       PRES   REMARKS
FREDERICKSBRG* CLEAR     69  69  99 CALM      29.91S
STAFFORD*      CLEAR     65  64  94 CALM      29.96S

$$

NCZ024-NYZ072-PAZ021-071-VAZ022-071-030900-
OTHER REGIONAL OBSERVATIONS

CITY           SKY/WX    TMP DP  RH WIND       PRES   REMARKS
NEW YORK CITY  CLEAR     77  66  68 CALM      29.89S
PHILADELPHIA   CLEAR     77  64  64 N5        29.88S
PITTSBURGH     MOCLDY    71  66  84 CALM      29.98F
ROANOKE        CLEAR     67  64  90 N3        30.02S
RICHMOND       CLEAR     68  65  90 S8        29.93S
RALEIGH        FOG       70  69  97 CALM      29.96S VSB 1/2

$$

ANZ530>537-030900-
MARINE OBSERVATIONS

STATION/POSITION TIME  TEMP    WIND        PRES
                       AIR SEA DIR/SP/G
                 (UTC) (F)     (DEG/KT/KT) (MB)
THOMAS PT LIGHT  NOT AVBL
BALT KEY BRIDGE  0700   75     230/  7/  8 1011.9F
COVE POINT       0700   74     280/  7/ 11 1012.8F
LEWISETTA        0700   73 81  280/  7/  8 1012.4F
SOLOMONS ISLAND  0700      81                N/A
PINEY POINT      0705          270/  7/  8   N/A

$$




USA.gov is the U.S. government's official web portal to all federal, state and local government web resources and services.